Regional Weather Roundup
Issued by NWS Midland/Odessa, TX

Skip options and go directly to product.
Home | Oldest Version | Previous Version | Current Version | All | Graphics & Text | Save Text | Print | Product List | Glossary On

Skip product version selection by date and time.   
249
ASUS44 KMAF 201010
RWRMAF
MIDLAND AREA WEATHER ROUNDUP
NATIONAL WEATHER SERVICE MIDLAND TX
500 AM CDT WED AUG 20 2014

...IN SOUTHWEST TEXAS AND SOUTHEAST NEW MEXICO...

CITY           SKY/WX    TMP DP  RH WIND       PRES   REMARKS
ALPINE         CLOUDY    70  61  73 SW9       30.07R
ANDREWS        FAIR      73  63  72 S7        29.92S
ARTESIA        CLEAR     72  57  60 CALM      29.90R
BIG SPRING     CLEAR     76  64  64 S15       29.92S
CARLSBAD       MOCLDY    75  60  59 E3        29.87S
DRYDEN           N/A     79  68  69 CALM      29.88R
FORT STOCKTON  MOCLDY    74  65  73 SW5       29.92R
GUAD PASS      CLOUDY    65  58  78 SW22      30.06S
HOBBS          CLEAR     72  63  73 S9        29.94R
MARFA          CLOUDY    66  63  88 CALM      30.06F
MIDLAND AIRPK  CLEAR     75  64  68 S10       29.92R
MIDLAND INTL   CLEAR     74  64  71 S10       29.91R
ODESSA         CLEAR     75  64  68 S9        29.92R
PECOS          PTCLDY    75  60  58 S3        29.88R
PRESIDIO       PTSUNNY   77  63  61 SE6       29.93S
SEMINOLE       CLEAR     72  63  72 S8        29.94S
SNYDER         CLEAR     72  65  79 S8        29.91S
WINK           MOCLDY    78  65  63 S9        29.87S
$$
...OTHER STATIONS IN TEXAS...

CITY           SKY/WX    TMP DP  RH WIND       PRES   REMARKS
ABILENE        CLEAR     77  67  71 S14       29.90R
AMARILLO       CLEAR     71  64  78 S16       29.92S
AUSTIN         MOCLDY    78  74  87 S7        29.93R
BROWNSVILLE    PTCLDY    78  76  93 CALM      29.89S
CORPUS CHRISTI PTCLDY    80  77  90 SE6       29.89S
DALLAS FTW     CLOUDY    82  69  64 S15       29.89S
DEL RIO        CLEAR     82  63  52 E12       29.85R
EL PASO        FAIR      72  55  55 W12       29.97R
HOUSTON INT    PTCLDY    76  74  93 S3        29.94S
LUBBOCK        PTCLDY    72  61  68 S9        29.93R
SAN ANGELO     CLEAR     76  68  76 S13       29.89S
SAN ANTONIO    MOCLDY    80  74  81 S15       29.94R
WACO           MOCLDY    79  71  76 S12       29.91S
WICHITA FALLS  NOT AVBL
$$
...OTHER LOCATIONS IN NEW MEXICO...

CITY           SKY/WX    TMP DP  RH WIND       PRES   REMARKS
ALAMAGORDO     PTCLDY    70  57  64 S13       29.97S
ALBUQUERQUE    CLOUDY    69  52  54 SW3       30.05R
CANNON AFB     CLEAR     69  62  79 S8        29.95S
CLOVIS           N/A     68  59  73 S9        29.97S
HOLLOMAN AFB   PTCLDY    72  59  64 SE16      29.95R
ROSWELL        CLEAR     69  58  67 S8        29.89R
RUIDOSO        PTCLDY    59  50  72 SW8       30.14R
SANTA FE       CLOUDY    63  51  65 W3        30.08R
TRUTH OR CONSE FAIR      71  55  56 NW7       29.99R
TUCUMCARI      CLEAR     73  58  59 SW9       29.90R
$$

USA.gov is the U.S. government's official web portal to all federal, state and local government web resources and services.